Flag for Germany Weather past 2 weeks in Starnberg, Bavaria, Germany

Now
52 °F

Light rain. Broken clouds.


Feels Like: 50 °F
Forecast: 47 / 62 °F
Wind: 6 mph from Northwest

Location: Oberpfaffenhofen

Current Time: May 6, 2015 at 11:40:19 AM

Latest Report: May 6, 2015 at 11:20 AM


Visibility: N/A

Pressure: 30.04 "Hg

Humidity: 94%

Dew point: 50 °F

Location of StarnbergLocation

Historic Weather in Starnberg — Graph

°F

Starnberg temperature yesterday

Maximum temperature yesterday: 77 °F (at 1:50 PM)
Minimum temperature yesterday: 63 °F (at 6:50 AM)
Average temperature yesterday: 71 °F

Past Weeks' High & Low Weather Summary

 TemperatureHumidityPressure
High77 °F (May 5, 1:50 PM)100% (Apr 24, 6:50 AM)30.39 "Hg (Apr 24, 6:50 AM)
Low30 °F (Apr 24, 6:50 AM)25% (Apr 22, 6:20 PM)29.47 "Hg (Apr 27, 6:50 PM)
Average56 °F63%29.96 "Hg
* Reported Apr 21 10:20 AM — May 6 10:20 AM, Starnberg, Weather by CustomWeather, © 2015

Note: Actual official high and low records may vary slightly from our data, if they occured in-between our weather recording intervals... More about our weather records

Advertising

Starnberg weather history for previous 24 hours

 ConditionsComfort  
Time TempWeatherWind HumidityBarometerVisibility
10:20 AM
Wed, May 6
54 °FLight rain. Broken clouds.6 mph94%30.01 "HgN/A
9:50 AM52 °FLight rain. Broken clouds.9 mph100%30.01 "Hg5 mi
9:20 AM52 °FLight rain. Broken clouds.9 mph100%30.01 "HgN/A
8:50 AM52 °FLight rain. Broken clouds.10 mph100%30.01 "Hg4 mi
8:20 AM54 °FSprinkles. Broken clouds.5 mph94%29.98 "Hg6 mi
7:50 AM54 °FRain showers. Broken clouds.6 mph94%29.98 "HgN/A
7:20 AM54 °FSprinkles. Broken clouds.2 mph94%29.98 "HgN/A
6:50 AM52 °FSprinkles. Broken clouds.3 mph100%29.95 "HgN/A
7:50 PM
Tue, May 5
66 °FBroken clouds.9 mph64%29.86 "HgN/A
7:20 PM68 °FSunny.7 mph60%29.86 "Hg10 mi
6:50 PM70 °FPassing clouds.6 mph53%29.83 "HgN/A
6:20 PM70 °FSunny.7 mph57%29.83 "Hg10 mi
5:50 PM70 °FPassing clouds.8 mph53%29.83 "HgN/A
5:20 PM72 °FPassing clouds.8 mph53%29.83 "HgN/A
4:50 PM72 °FBroken clouds.12 mph47%29.80 "HgN/A
4:20 PM72 °FBroken clouds.9 mph53%29.83 "HgN/A
3:50 PM73 °FBroken clouds.12 mph47%29.80 "HgN/A
3:20 PM73 °FBroken clouds.10 mph47%29.80 "HgN/A
2:50 PM75 °FSunny.12 mph41%29.80 "Hg10 mi
2:20 PM75 °FSunny.12 mph47%29.77 "Hg10 mi
1:50 PM77 °FSunny.8 mph42%29.77 "Hg10 mi
1:20 PM75 °FSunny.6 mph50%29.77 "Hg10 mi
12:50 PM73 °FSunny.2 mph57%29.77 "Hg10 mi
12:20 PM72 °FPassing clouds.6 mph61%29.77 "HgN/A
11:50 AM70 °FSunny.9 mph69%29.77 "Hg10 mi
11:20 AM72 °FSunny.7 mph61%29.74 "Hg10 mi
Weather by CustomWeather, © 2015

See weather overviewHow to use our weather pages